| time (UTC) | temp C | wind direction | speed KPH | gust KPH | rain 1hr cm | rain 24hr cm | rain mn cm | humidity % | barometer mb |
| 20260503210051 | 24 | 341 | 8.0 | 17.7 | 0.00 | 0.00 | 0.00 | 48 | 1011.7 |
| 20260503204606 | 23 | 4 | 8.0 | 19.3 | 0.00 | 0.00 | 0.00 | 50 | 1011.9 |
| 20260503203046 | 23 | 337 | 8.0 | 17.7 | 0.00 | 0.00 | 0.00 | 50 | 1012.1 |
| 20260503201544 | 23 | 38 | 9.7 | 19.3 | 0.00 | 0.00 | 0.00 | 51 | 1012.3 |
| 20260503200041 | 23 | 126 | 1.6 | 12.9 | 0.00 | 0.00 | 0.00 | 51 | 1012.4 |
| 20260503194542 | 22 | 314 | 8.0 | 17.7 | 0.00 | 0.00 | 0.00 | 52 | 1012.6 |
| 20260503193044 | 22 | 41 | 3.2 | 16.1 | 0.00 | 0.00 | 0.00 | 52 | 1012.8 |
| 20260503191559 | 22 | 347 | 14.5 | 19.3 | 0.00 | 0.00 | 0.00 | 52 | 1012.9 |
| 20260503190032 | 22 | 272 | 6.4 | 14.5 | 0.00 | 0.00 | 0.00 | 54 | 1013.1 |
| 20260503184523 | 21 | 324 | 3.2 | 14.5 | 0.00 | 0.00 | 0.00 | 56 | 1013.3 |
| 20260503183020 | 21 | 354 | 4.8 | 16.1 | 0.00 | 0.00 | 0.00 | 55 | 1013.5 |
| 20260503181516 | 21 | 359 | 4.8 | 12.9 | 0.00 | 0.00 | 0.00 | 56 | 1013.5 |
| 20260503180012 | 20 | 354 | 8.0 | 16.1 | 0.00 | 0.00 | 0.00 | 59 | 1013.7 |
| 20260503174508 | 20 | 258 | 8.0 | 17.7 | 0.00 | 0.00 | 0.00 | 59 | 1013.7 |
| 20260503173005 | 20 | 314 | 6.4 | 12.9 | 0.00 | 0.00 | 0.00 | 58 | 1013.8 |
| 20260503171600 | 19 | 4 | 6.4 | 12.9 | 0.00 | 0.00 | 0.00 | 61 | 1013.8 |
| 20260503170111 | 19 | 350 | 8.0 | 14.5 | 0.00 | 0.00 | 0.00 | 61 | 1013.9 |
| 20260503090153 | 12 | 115 | 1.6 | 8.0 | 0.00 | 0.00 | 0.00 | 84 | 1014.4 |
| 20260503081535 | 13 | 140 | 0.0 | 3.2 | 0.00 | 0.00 | 0.00 | 80 | 1014.4 |
| 20260503071519 | 15 | 147 | 0.0 | 0.0 | 0.00 | 0.00 | 0.00 | 75 | 1014.5 |
| 20260503054515 | 15 | 167 | 1.6 | 6.4 | 0.00 | 0.00 | 0.00 | 72 | 1014.3 |
| 20260503053015 | 16 | 168 | 0.0 | 1.6 | 0.00 | 0.00 | 0.00 | 69 | 1014.4 |
| 20260503051513 | 16 | 168 | 1.6 | 3.2 | 0.00 | 0.00 | 0.00 | 66 | 1014.3 |
| 20260503050015 | 17 | 129 | 0.0 | 4.8 | 0.00 | 0.00 | 0.00 | 64 | 1014.2 |
| 20260503044514 | 17 | 135 | 3.2 | 6.4 | 0.00 | 0.00 | 0.00 | 65 | 1014.2 |
| 20260503043012 | 17 | 97 | 1.6 | 6.4 | 0.00 | 0.00 | 0.00 | 63 | 1014.0 |
| 20260503041512 | 18 | 323 | 3.2 | 6.4 | 0.00 | 0.00 | 0.00 | 61 | 1013.6 |
| 20260503040011 | 18 | 319 | 4.8 | 8.0 | 0.00 | 0.00 | 0.00 | 60 | 1013.5 |
| 20260503034512 | 18 | 320 | 4.8 | 6.4 | 0.00 | 0.00 | 0.00 | 58 | 1013.3 |
| 20260503033010 | 19 | 354 | 1.6 | 8.0 | 0.00 | 0.00 | 0.00 | 57 | 1013.2 |
| 20260503031510 | 20 | 328 | 1.6 | 8.0 | 0.00 | 0.00 | 0.00 | 55 | 1013.0 |
| 20260503030010 | 20 | 326 | 6.4 | 9.7 | 0.00 | 0.00 | 0.00 | 53 | 1012.8 |
| 20260503024513 | 21 | 342 | 4.8 | 9.7 | 0.00 | 0.00 | 0.00 | 52 | 1012.7 |
| 20260503023009 | 21 | 325 | 8.0 | 17.7 | 0.00 | 0.00 | 0.00 | 51 | 1012.7 |
| 20260503021509 | 21 | 347 | 8.0 | 16.1 | 0.00 | 0.00 | 0.00 | 50 | 1012.7 |
| 20260503020009 | 21 | 348 | 4.8 | 16.1 | 0.00 | 0.00 | 0.00 | 51 | 1012.7 |
| 20260503014508 | 21 | 354 | 9.7 | 19.3 | 0.00 | 0.00 | 0.00 | 50 | 1012.7 |
| 20260503013012 | 22 | 62 | 3.2 | 17.7 | 0.00 | 0.00 | 0.00 | 51 | 1012.7 |
| 20260503011507 | 22 | 354 | 8.0 | 17.7 | 0.00 | 0.00 | 0.00 | 50 | 1012.8 |
| 20260503010006 | 22 | 4 | 9.7 | 20.9 | 0.00 | 0.00 | 0.00 | 50 | 1012.8 |
| 20260503004504 | 21 | 324 | 12.9 | 20.9 | 0.00 | 0.00 | 0.00 | 49 | 1013.0 |
| 20260503003100 | 21 | 354 | 9.7 | 20.9 | 0.00 | 0.00 | 0.00 | 50 | 1013.0 |
| 20260503001558 | 22 | 37 | 8.0 | 19.3 | 0.00 | 0.00 | 0.00 | 50 | 1013.1 |
| 20260503000100 | 21 | 4 | 9.7 | 19.3 | 0.00 | 0.00 | 0.00 | 51 | 1013.1 |
| 20260502234557 | 21 | 341 | 9.7 | 22.5 | 0.00 | 0.00 | 0.00 | 52 | 1013.3 |
| 20260502233056 | 21 | 20 | 8.0 | 20.9 | 0.00 | 0.00 | 0.00 | 55 | 1013.4 |
| 20260502231551 | 21 | 345 | 14.5 | 24.1 | 0.00 | 0.00 | 0.00 | 55 | 1013.6 |
| 20260502230047 | 21 | 359 | 9.7 | 20.9 | 0.00 | 0.00 | 0.00 | 56 | 1013.9 |
| 20260502224547 | 21 | 346 | 12.9 | 20.9 | 0.00 | 0.00 | 0.00 | 57 | 1014.1 |
| 20260502223044 | 21 | 45 | 11.3 | 19.3 | 0.00 | 0.00 | 0.00 | 58 | 1014.3 |
| 20260502221539 | 21 | 359 | 12.9 | 20.9 | 0.00 | 0.00 | 0.00 | 59 | 1014.4 |
| 20260502220037 | 20 | 291 | 6.4 | 20.9 | 0.00 | 0.00 | 0.00 | 60 | 1014.6 |
| 20260502214547 | 20 | 245 | 8.0 | 20.9 | 0.00 | 0.00 | 0.00 | 60 | 1014.8 |
| 20260502213034 | 20 | 345 | 6.4 | 20.9 | 0.00 | 0.00 | 0.00 | 60 | 1014.8 |
| 20260502211534 | 20 | 258 | 9.7 | 19.3 | 0.00 | 0.00 | 0.00 | 61 | 1015.0 |